Regional Weather Roundup
Issued by NWS

Home | Current Version | Previous Version | Text Only | Print | Product List | Glossary On
Versions: 1 2 3 4 5 6 7 8 9 10 11 12 13 14 15 16 17 18 19 20 21 22 23 24 25 26 27 28 29 30 31 32 33 34 35 36 37 38 39 40 41 42 43 44 45 46 47 48 49 50
000
ASUS45 KBOU 021407
RWRCO

WEATHER ROUNDUP FOR COLORADO
NATIONAL WEATHER SERVICE DENVER/BOULDER CO
800 AM MDT TUE SEP 02 2014

NOTE: "FAIR" INDICATES FEW OR NO CLOUDS BELOW 12000 FEET WITH NO
SIGNIFICANT WEATHER AND/OR OBSTRUCTIONS TO VISIBILITY.

COZ001>005-013-030-031-021500-
...NORTHWEST COLORADO...

CITY           SKY/WX    TMP DP  RH WIND       PRES   REMARKS
CRAIG          SUNNY     43  40  89 W5        30.22R
HAYDEN         SUNNY     46  34  61 E9        30.23S
MEEKER         SUNNY     47  37  68 CALM      30.24R
MOUNT WERNER   NOT AVBL
STEAMBOAT SPGS SUNNY     42  37  84 CALM      30.26R
WALDEN         SUNNY     37  32  81 CALM      30.28S
$$

COZ006>008-011-021500-
...WEST CENTRAL VALLEYS...

CITY           SKY/WX    TMP DP  RH WIND       PRES   REMARKS
GRAND JUNCTION SUNNY     60  40  47 E13       30.12R
MONTROSE       SUNNY     55  40  56 S5        30.21R
EAGLE          SUNNY     43  36  75 CALM      30.30R
RIFLE          SUNNY     50  41  71 CALM      30.20R
DELTA          SUNNY     57  39  51 E3        30.17S
NUCLA          SUNNY     55  36  47 E5        30.23R
$$

COZ017>023-064>068-021500-
...SOUTHWEST COLORADO...

CITY           SKY/WX    TMP DP  RH WIND       PRES   REMARKS
DURANGO        SUNNY     51  34  52 E6        30.25R
CORTEZ         SUNNY     55  40  56 NE3       30.20R
PAGOSA SPRINGS SUNNY     54  33  44 CALM      30.32R
TELLURIDE      NOT AVBL
WOLF CREEK PAS MOSUNNY   50  27  40 SW8       30.59S
$$

COZ009-010-012-014-032>034-037-058>063-021500-
...CENTRAL COLORADO...

CITY           SKY/WX    TMP DP  RH WIND       PRES   REMARKS
ASPEN          SUNNY     50  34  54 VRB3      30.30R
BUENA VISTA    SUNNY     47  32  56 CALM      30.33S
COPPER MTN     SUNNY     50  21  32 SW10G18   30.56R
BERTHOUD PASS  FAIR      37  37 100 W20       30.55R
COTTONWOOD PAS SUNNY     57  23  26 N7        30.43R
GUNNISON       SUNNY     41  32  70 CALM      30.40R
KREMMLING      SUNNY     37  32  81 CALM      30.32S
LEADVILLE      SUNNY     52  26  36 NE7       30.42R
MONARCH PASS   SUNNY     43  27  52 W25       30.66R
SALIDA         SUNNY     50  33  53 CALM      30.38S
SUNLIGHT       SUNNY     48  32  53 CALM      30.48R
WILKERSON PASS NOT AVBL
$$

COZ069>075-021500-
...SAN LUIS VALLEY/SANGRE DE CRISTO MOUNTAINS...

CITY           SKY/WX    TMP DP  RH WIND       PRES   REMARKS
ALAMOSA        MOSUNNY   48  33  56 MISG      30.32R
LA VETA PASS   NOT AVBL
SAGUACHE       NOT AVBL
$$

COZ035-036-038>040-021500-
...NORTHERN COLORADO FRONT RANGE...

CITY           SKY/WX    TMP DP  RH WIND       PRES   REMARKS
DENVER INTL AP SUNNY     54  45  71 SW7       30.14S
DMNS CITY PARK   N/A     56  44  64 SW5       30.13S
AURORA         SUNNY     54  45  69 S3        30.15S
FRONT RANGE AP NOT AVBL
ERIE MUNI ARPT SUNNY     52  47  81 CALM      30.13F
BOULDER MUN AP SUNNY     54  43  66 CALM      30.13F
CENTENNIAL     SUNNY     55  45  68 S5        30.15F
BROOMFIELD     SUNNY     55  45  67 CALM      30.14F
FORT COLLINS   SUNNY     52  46  82 CALM      30.14S
LONGMONT       SUNNY     55  45  68 CALM      30.14F
$$

COZ041-046-047-076>085-087-088-021500-
...PIKES PEAK/PALMER DIVIDE AND SOUTHERN FOOTHILLS...

CITY           SKY/WX    TMP DP  RH WIND       PRES   REMARKS
COLO. SPRINGS  MOSUNNY   61  53  75 CALM      30.21R
A. F. ACADEMY  SUNNY     50  43  76 N7        30.22R
ELLICOTT       CLOUDY    61  57  87 CALM      30.20R
FALCON         SUNNY     58  56  92 W3        30.25R
FORT CARSON    SUNNY     58  45  62 NW5       30.19R
LIMON          PTSUNNY   56  47  71 CALM      30.16S
MONUMENT HILL  SUNNY     55  52  88 S9        30.21S FOG
TRINIDAD       SUNNY     58  41  53 W9        30.20R
$$

COZ042>045-048>051-090-091-021500-
...NORTHEAST COLORADO...

CITY           SKY/WX    TMP DP  RH WIND       PRES   REMARKS
GREELEY ARPT   SUNNY     48  39  71 NW3       30.13S
AKRON            N/A     55  49  80 W7        30.11S
BURLINGTON     PTSUNNY   60  57  89 S12       30.13S
WRAY             N/A    N/A N/A N/A SW3       30.10S
STERLING       SUNNY     54  50  87 SW5       30.09S
HOLYOKE        SUNNY     59  54  82 CALM      30.10S
FORT MORGAN    SUNNY     52  47  84 CALM      30.12S
$$

COZ086-089-092>099-021500-
...SOUTHEAST COLORADO...

CITY           SKY/WX    TMP DP  RH WIND       PRES   REMARKS
PUEBLO         MOSUNNY   64  51  62 W9        30.13R
LA JUNTA       CLOUDY    65  59  81 E8        30.12R
LAMAR          MOSUNNY   66  61  84 E12       30.09R
SPRINGFIELD      N/A     64  62  93 NE13      30.13R
$$


USA.gov is the U.S. government's official web portal to all federal, state and local government web resources and services.